Location: Zagreb
(45.8000°N, 16.0000°E)
Time: 12:05:20
(UTC+01:00)

Vanguard 1 Rocket - Pass Details

Date: 06 October 2020
Orbit: 656 x 4221 km, 34.3° (Epoch: 28 October)

Event Time Altitude Azimuth Distance (km) Brightness Sun altitude
Rises 23:14:44 0° 277° (W) 6,476 12.1 -45.4°
Reaches altitude 10° 23:19:23 10° 266° (W) 5,931 11.7 -45.8°
Enters shadow 23:34:14 29° 219° (SW) 5,556 11.0 -47.0°
Maximum altitude 23:34:48 29° 217° (SW) 5,581 - -47.1°
Drops below altitude 10° 23:54:15 10° 168° (SSE) 7,388 - -48.3°
Sets 00:01:19 0° 158° (SSE) 8,251 - -48.7°
